Погода в Вижнице

Украина / Черновицкая область     48°14′42″N   25°10′55″E
темп.,
°C
ветер,
м/с
пор.,
м/с
влажн.,
%
обл.,
%
осадки,
мм/ч
давл.,
гПа
погр.,
м
13 мая, чт
чт1300:00+10вюв488790 0.0 1008517
03:00+8юв239444 0.0 100695
06:00+9юв2391100 0.0 1005118
09:00+13юв128086 0.4 1003296
12:00+16ююз1472100 1.1 1002723
15:00+16зюз2364100 2.6 1003750
18:00+17вюв146098 0.8 10021051
21:00+11юз358325 2.1 100389
14 мая, пт
пт1400:00+9юз338619 0.0 100447
03:00+8юз338883 0.0 100438
06:00+9ююз228572 0.0 100439
09:00+15юз366098 0.0 10041211
12:00+16юз5756100 0.0 10051405
15:00+17зюз374682 0.1 10052010
18:00+14зюз475851 0.0 10071392
21:00+11юз236999 0.0 1008279
15 мая, сб
сб1500:00+11зюз1172100 0.0 100939
03:00+10юз2275100 0.0 101039
06:00+10ююз1181100 0.1 101117
09:00+11юз1177100 0.2 1012146
12:00+13ю1268100 0.1 1013554
15:00+17в335467 0.1 10111361
18:00+17в44578 0.1 10101156
21:00+11юв24925 0.3 101168
16 мая, вс
вс1600:00+9ю22951 0.0 101132
03:00+8ююз2294100 0.1 101125
06:00+8ююз229098 0.0 101021
09:00+15юв1267100 0.0 1010293
12:00+20в344896 0.0 10081663
15:00+16ююв486899 0.4 1008757
18:00+14юз2582100 0.5 1007200
21:00+13юз228599 0.6 100735
17 мая, пн
пн1700:00+12юз2182100 0.0 100827
03:00+11з1298100 1.2 100982
06:00+11зсз0198100 1.1 100955
09:00+13ссв018662 1.1 1010413
12:00+18с236141 0.2 10091346
15:00+20ссв335112 0.3 10081601
18:00+18всв336087 0.2 1008974
21:00+13юв228694 0.5 100915